Dewpoint
68 67 68 68 69 68 68 67 67 67 66 67 64 65 65 65 65 63 63 63 63 63 62 61 62 63 61 60 61 61 64 65 65 65 65 65 64 65 67 68 67 67 64 62 62 61 60 60 60 61 61 59 60 64 64 63 63 63 63 62 61 61 61 61 61 61 60 59 59 58 58 58 58 57 57 57 57 57 57 56 56 56 56 56 56
68 68 67 68 68 69 68 68 67 66 65 66 67 66 66 64 64 64 60 62 62 63 63 60 59 61 60 60 61 61 63 64 64 64 64 65 65 66 68 68 67 67 67 64 62 62 60 60 60 61 61 61 59 62 64 63 63 63 64 62 62 61 61 60 60 60 60 60 59 59 58 58 58 57 57 57 57 57 57 57 56 56 56 56 57
68 67 67 67 68 68 68 67 67 66 67 67 67 66 66 66 65 63 62 62 62 63 61 61 60 59 61 59 61 62 62 64 63 63 63 65 64 66 65 68 67 67 67 66 65 63 62 61 61 61 61 61 61 60 60 62 59 63 64 63 63 62 61 60 60 60 60 60 59 59 58 58 58 58 57 57 57 56 57 56 56 56 56 56 55
68 68 67 67 67 67 66 67 67 66 67 66 67 66 66 65 65 66 66 65 63 63 63 61 60 58 59 59 60 62 62 63 63 64 63 65 64 66 66 64 67 67 67 66 66 66 63 63 61 61 61 61 60 61 61 60 60 60 62 64 63 63 62 61 60 60 60 59 58 60 59 58 58 58 57 57 57 57 56 56 56 56 56 55 55
65 64 65 66 66 66 67 67 66 67 67 67 66 67 67 66 66 66 65 64 64 64 62 63 62 62 61 60 61 60 60 61 63 63 63 64 64 64 65 65 64 67 65 65 65 66 66 64 64 63 61 61 60 60 61 60 60 60 59 65 64 63 63 62 61 60 60 60 59 59 59 58 58 58 58 58 57 57 57 56 56 56 56 56 56
64 64 65 65 64 64 65 65 66 66 66 67 65 65 66 66 64 63 63 63 63 63 62 62 62 61 62 61 62 64 62 60 63 63 64 64 64 64 64 64 64 64 64 66 67 66 66 66 65 64 63 62 61 60 60 61 60 59 59 63 65 64 63 63 62 61 61 60 59 59 59 59 58 58 58 57 57 57 56 56 56 56 56 55 56
64 65 64 64 64 64 65 66 66 66 66 66 66 65 66 65 63 62 63 64 64 63 63 63 63 62 63 64 61 61 63 62 63 62 61 64 64 64 65 64 65 64 64 63 67 67 66 66 66 67 65 64 62 62 61 61 61 61 60 59 65 65 64 63 63 63 62 61 60 60 59 59 59 59 58 58 58 57 57 56 56 56 56 55 55
64 64 64 64 64 65 65 65 65 66 67 66 66 65 66 66 65 64 63 63 63 64 64 64 64 62 63 63 63 63 62 62 63 61 62 62 61 64 64 64 64 63 64 64 65 65 66 66 67 66 67 66 64 63 62 62 61 61 61 61 61 64 64 64 63 64 63 62 61 61 60 60 59 59 58 58 58 58 57 57 56 56 56 56 55
64 64 65 64 65 64 65 65 66 66 67 66 66 65 66 65 65 65 64 63 62 62 63 63 62 63 64 64 64 64 63 64 63 63 61 63 63 62 63 62 63 63 65 63 65 65 66 66 66 66 66 66 67 65 64 64 64 63 62 62 61 62 65 64 63 64 64 63 63 62 61 61 60 60 59 59 58 58 58 57 57 56 56 56 56
64 64 64 64 64 64 64 65 64 66 65 66 66 66 66 66 65 65 64 63 62 60 61 61 62 62 62 63 64 64 64 64 64 64 64 62 63 63 63 64 63 62 62 63 63 64 64 65 65 65 66 66 65 66 66 65 65 65 65 64 63 62 63 64 63 63 63 64 64 63 62 61 61 60 60 59 59 58 58 58 58 57 57 56 56
65 65 64 64 64 64 65 65 65 66 65 65 65 65 65 66 65 63 65 64 63 62 62 63 62 62 60 62 63 64 64 64 63 63 64 64 64 63 63 64 65 65 64 64 63 63 65 64 63 64 64 65 66 65 65 66 66 66 65 65 65 65 64 64 64 63 63 63 64 64 63 63 62 61 60 60 59 59 58 58 58 58 57 57 57
64 64 65 65 65 65 64 65 65 65 65 64 64 64 65 65 64 63 63 62 62 62 62 62 63 61 61 61 61 63 63 63 63 61 61 63 64 64 63 63 63 64 64 66 66 65 65 64 64 63 63 64 65 65 65 65 65 65 66 66 65 65 65 65 64 64 64 63 63 64 64 63 62 62 61 61 60 59 59 59 58 58 58 57 57
64 64 64 64 64 65 64 64 64 64 64 64 64 64 64 65 64 64 63 62 62 62 62 62 60 59 60 60 61 61 62 61 62 61 60 61 61 62 62 62 61 64 65 67 66 65 65 64 64 63 63 63 64 65 65 65 65 65 65 65 66 65 65 65 65 64 64 64 63 63 65 64 63 63 62 62 61 61 59 59 58 58 58 58 57
64 64 64 64 64 64 64 63 64 64 64 64 63 63 63 63 63 62 62 63 62 62 62 62 58 58 57 57 58 60 60 61 60 60 61 61 62 62 62 60 60 62 63 63 64 63 64 65 65 65 64 63 63 63 64 64 64 61 62 63 65 66 65 65 65 64 65 64 65 65 65 65 64 63 63 62 62 61 61 59 59 58 58 58 58
64 63 64 64 64 64 63 63 64 64 63 63 64 63 63 63 63 62 61 62 62 61 62 62 60 60 60 57 56 55 58 60 61 60 60 62 62 59 58 57 57 59 60 61 61 62 60 61 62 63 64 64 64 64 64 63 62 60 61 61 63 65 66 65 64 64 65 65 64 65 64 65 65 64 63 63 62 62 61 61 60 59 59 59 58
62 62 63 64 64 63 64 63 63 64 63 63 63 62 63 63 63 63 62 59 60 60 62 62 61 59 55 57 57 56 54 55 57 59 60 59 59 58 57 56 56 56 58 58 59 60 60 62 62 62 62 62 60 60 60 60 59 60 61 62 64 63 63 64 65 65 64 65 65 64 64 64 64 65 64 64 63 62 62 62 61 60 60 59 58
64 63 63 63 64 64 64 63 63 63 63 62 62 62 62 63 63 63 62 61 60 61 61 61 62 63 59 55 53 53 53 57 57 57 59 57 57 57 58 56 56 56 55 56 58 60 61 60 62 61 62 61 61 59 59 59 59 60 61 62 63 62 62 63 64 65 65 65 65 65 64 65 65 65 65 64 64 63 63 62 62 61 61 60 59
64 64 63 64 64 64 64 63 63 62 62 62 61 62 62 62 62 62 61 62 61 60 60 61 61 62 62 63 61 56 55 58 56 52 58 59 58 55 53 53 53 52 52 51 51 53 55 56 57 58 58 59 59 59 61 62 63 62 62 63 61 61 60 61 63 64 65 64 65 65 65 65 64 64 65 65 64 64 63 63 63 62 62 61 61
64 64 64 63 64 64 64 63 63 62 62 62 62 62 61 60 62 61 62 62 61 60 60 59 60 61 61 62 61 61 61 55 53 55 52 51 52 53 48 45 47 47 46 46 49 51 52 51 51 52 53 55 57 59 61 61 61 62 60 59 59 58 57 56 60 62 63 63 64 65 65 65 65 65 64 63 64 64 64 64 63 63 62 62 62
63 63 64 64 63 63 63 63 62 62 61 61 61 61 62 61 62 63 62 62 62 59 60 60 59 59 61 60 61 61 60 60 56 54 52 48 45 47 49 50 50 50 49 48 49 50 51 49 46 47 48 48 50 52 57 58 56 54 55 55 55 54 53 53 53 54 58 62 63 63 64 64 64 64 64 63 63 63 64 64 64 63 63 62 62
60 61 61 62 63 63 63 63 62 62 62 61 62 62 62 62 62 61 61 62 62 61 60 59 60 59 60 59 59 58 59 60 59 56 51 49 46 44 44 47 49 49 49 48 46 48 48 47 43 42 46 47 47 47 48 52 53 51 51 53 54 53 52 51 50 50 52 58 61 63 64 64 64 64 65 64 63 63 63 64 64 64 64 63 63
59 59 60 59 61 63 63 63 61 61 61 61 62 62 62 62 62 62 62 62 61 61 61 60 60 61 60 60 59 58 58 57 57 54 52 51 47 44 45 46 44 45 49 46 45 44 44 45 45 42 44 45 45 45 47 47 48 47 51 52 52 53 52 50 47 49 51 55 59 62 64 64 64 64 65 65 64 64 63 64 64 64 64 64 64
58 59 59 60 61 61 62 62 62 61 60 60 62 60 60 61 61 62 62 61 60 60 60 60 60 59 59 59 58 58 56 55 54 53 51 49 46 45 45 42 43 45 46 47 43 40 39 43 43 43 44 45 45 46 47 47 49 49 51 52 51 51 51 49 47 47 49 53 56 60 63 64 64 64 64 64 65 65 65 64 65 65 64 64 64
58 58 59 59 60 60 59 60 59 60 60 60 60 59 59 58 58 59 59 60 61 60 60 59 60 59 59 57 54 55 54 52 52 52 51 48 47 45 42 42 41 40 43 46 41 40 39 38 38 40 41 43 44 47 48 46 46 53 49 51 50 50 50 49 48 48 47 50 53 56 59 61 61 62 62 63 63 63 64 64 64 64 64 64 64
57 57 58 58 58 58 58 58 58 58 58 57 58 56 56 55 55 56 57 58 58 59 57 58 58 54 52 53 49 49 49 51 50 48 49 47 46 43 42 42 43 43 41 43 39 38 37 37 36 37 36 40 42 45 45 45 45 50 50 49 50 49 48 48 48 47 46 46 48 51 54 57 59 59 59 58 58 58 58 57 55 53 55 55 58
57 57 56 56 57 58 58 57 56 56 56 56 56 54 55 51 55 55 55 55 55 56 55 55 55 55 54 50 51 49 50 51 50 48 46 44 40 42 44 45 45 39 38 37 39 37 37 36 36 36 37 39 42 44 46 42 45 49 50 47 48 48 48 47 47 45 44 43 44 46 48 50 52 54 54 53 53 52 52 51 51 51 51 52 52
54 55 55 56 57 57 57 56 55 56 55 55 54 54 55 52 52 55 53 53 54 54 53 54 53 52 54 51 51 50 49 47 46 43 41 43 43 45 43 43 44 42 39 37 36 38 38 36 35 33 35 42 42 44 43 42 44 49 49 48 47 48 47 47 46 46 45 44 43 43 44 45 46 47 48 49 48 49 51 51 51 49 50 50 51
54 55 55 55 56 56 55 55 55 55 54 54 53 52 55 53 52 53 51 51 54 53 52 53 54 54 53 52 48 47 49 46 45 46 43 45 44 46 44 40 40 40 41 41 39 36 38 37 35 32 29 36 39 43 43 40 41 48 47 46 46 46 47 46 46 45 45 44 44 43 43 43 44 45 46 47 49 48 49 49 49 49 49 50 50
55 56 55 55 55 56 55 55 55 55 54 53 53 53 53 53 52 52 51 52 52 51 52 51 52 52 51 52 48 46 47 50 48 48 49 50 48 46 37 37 38 37 38 38 40 40 37 35 31 31 28 30 38 39 39 36 43 44 42 43 45 44 46 46 45 44 44 43 43 43 42 43 44 44 46 46 46 47 47 47 48 48 48 49 49
55 55 55 55 56 55 55 54 55 55 54 53 51 51 52 51 52 50 51 52 51 51 51 49 51 51 51 49 48 46 50 49 49 51 50 50 47 45 42 42 40 35 36 35 38 43 41 39 32 27 27 27 32 38 37 35 44 41 39 39 42 43 45 45 46 44 44 43 42 42 42 42 43 44 45 45 45 46 45 46 46 47 47 48 47
54 54 54 54 54 54 55 54 54 54 54 53 52 51 51 50 51 49 51 50 48 49 51 51 52 51 50 50 51 48 51 51 51 50 50 49 47 45 44 44 43 43 41 38 39 41 43 40 35 27 28 29 29 38 38 37 39 40 42 41 36 45 45 43 45 45 44 43 42 42 42 43 43 43 42 44 44 45 45 45 46 46 47 47 46
55 54 53 53 53 53 53 53 53 53 52 52 52 51 52 52 50 48 50 49 46 47 48 49 46 49 49 48 48 47 48 46 48 49 48 50 50 44 44 44 43 45 42 39 39 40 44 39 33 27 30 35 30 31 35 32 37 43 38 39 41 44 37 40 44 45 45 43 42 42 42 42 41 41 41 41 42 43 43 43 45 45 45 45 45
55 54 52 52 51 51 51 51 51 52 52 52 52 52 51 51 51 51 49 47 45 46 47 49 47 47 44 44 45 47 49 46 47 48 46 45 47 46 45 42 41 43 40 41 38 40 42 40 34 27 33 35 28 31 32 37 39 37 39 40 40 39 38 38 40 44 45 43 42 42 41 41 40 41 40 40 41 41 42 42 43 44 43 42 43
54 53 52 54 53 51 50 50 51 50 51 51 51 52 51 52 52 52 51 47 46 46 49 45 46 47 48 44 42 46 46 43 47 39 40 40 38 38 40 40 37 38 40 36 35 35 37 38 32 30 31 36 29 31 37 39 39 38 32 36 35 35 35 37 35 40 43 44 42 42 42 41 41 41 40 40 40 41 41 41 41 40 41 41 42
53 53 53 53 52 51 51 51 50 51 50 50 52 51 52 52 51 52 52 50 48 48 47 46 42 44 45 46 45 47 50 47 47 45 45 40 37 37 41 38 37 36 32 33 36 34 34 31 34 29 34 35 36 29 32 36 37 34 32 35 33 33 34 37 36 33 42 43 43 42 41 41 41 40 39 40 40 40 40 41 41 40 40 41 41
53 54 53 52 52 52 51 50 50 50 50 51 51 49 49 49 50 50 50 52 50 49 47 45 43 45 45 46 47 48 48 47 45 45 46 44 42 40 41 41 38 34 37 38 36 35 33 32 33 26 31 36 33 31 31 33 35 34 34 34 34 34 35 34 34 32 37 43 43 42 42 41 41 40 39 39 40 40 40 40 41 40 40 41 41
53 54 53 52 52 51 53 50 50 50 50 50 50 51 52 52 50 51 50 49 51 50 50 50 50 47 47 47 46 46 47 46 48 45 44 46 39 42 40 37 34 35 38 35 34 34 36 35 36 35 36 32 30 35 31 31 32 33 34 35 33 34 38 39 36 33 39 41 43 42 40 40 40 39 39 39 40 40 39 40 41 41 41 41 41
54 54 54 53 52 52 52 52 52 51 51 51 50 50 51 52 52 52 51 51 50 50 50 50 48 50 50 47 48 47 46 47 46 47 46 46 43 43 40 35 32 36 39 38 38 37 35 34 36 36 38 35 35 36 33 35 36 35 35 36 37 37 38 40 37 35 36 35 41 39 40 37 37 38 39 39 39 39 39 40 41 41 41 41 41
54 55 54 54 55 54 54 54 53 53 53 53 54 54 53 53 53 53 54 53 52 52 52 50 50 50 49 50 50 50 49 47 48 48 48 48 47 44 44 43 33 37 37 36 35 37 37 37 36 37 36 37 38 35 31 34 35 34 37 37 37 34 39 39 38 35 38 40 39 39 38 37 39 38 38 39 39 40 40 40 41 42 41 41 40
55 54 54 55 56 55 55 55 55 55 56 55 55 55 55 55 55 55 54 55 54 54 54 52 52 52 51 50 50 51 51 50 49 48 49 47 46 45 44 41 39 39 38 38 38 36 37 37 35 35 35 36 37 39 34 36 36 36 36 38 37 37 37 38 38 36 37 36 35 33 35 36 35 36 38 39 40 40 40 41 41 42 42 40 41
58 56 56 57 56 56 55 56 55 57 57 57 57 56 56 56 56 56 56 55 56 55 55 53 52 51 50 51 51 50 51 50 47 48 47 47 46 44 44 41 40 40 39 38 38 36 36 37 38 39 37 37 37 38 36 36 36 36 39 40 38 37 35 35 33 36 35 34 33 32 31 37 33 35 33 35 36 39 38 40 40 40 40 40 41
57 57 56 56 56 56 56 56 56 57 57 57 55 51 51 55 56 56 57 56 55 55 55 54 53 52 51 51 52 51 49 48 45 43 42 41 43 45 43 41 40 40 39 39 37 37 37 36 36 36 36 36 36 39 38 40 40 41 39 39 36 34 34 33 33 37 37 35 34 33 31 35 36 34 34 35 37 39 39 39 38 39 40 40 41
57 56 57 56 57 57 56 56 56 57 56 55 49 46 45 46 53 56 58 56 56 55 54 54 54 53 54 51 52 52 49 48 48 42 41 40 39 38 39 39 40 42 40 39 38 38 35 37 37 36 35 37 38 39 38 37 40 40 38 37 36 34 32 30 27 32 39 36 34 33 33 37 37 31 31 34 37 38 38 38 39 39 39 40 41
57 57 58 56 56 57 57 56 57 57 56 50 47 46 44 44 46 56 56 56 55 55 54 54 53 53 53 54 53 53 52 51 49 50 44 39 37 37 36 36 36 36 39 44 39 38 39 37 36 37 37 37 37 38 37 39 38 37 37 37 36 34 33 31 31 31 34 38 35 33 34 35 36 35 35 35 35 38 36 38 39 39 39 40 40
56 55 56 57 56 56 56 56 56 57 57 47 44 44 43 42 41 46 54 55 56 55 55 55 54 54 54 54 54 53 49 50 48 48 46 41 38 37 37 37 37 35 34 34 37 44 40 38 38 38 37 37 37 38 41 39 39 37 36 33 34 34 34 33 32 32 35 38 35 33 31 33 35 35 34 36 36 37 37 37 39 39 39 39 40
55 55 55 57 56 56 55 55 56 56 55 46 43 42 42 41 40 41 54 55 56 55 55 55 55 54 54 53 52 52 51 50 49 48 44 40 38 39 39 39 39 41 38 36 35 35 38 39 38 38 40 38 38 40 39 38 36 34 34 33 35 34 34 34 36 36 36 37 35 34 32 31 33 34 33 34 35 36 36 37 38 38 39 39 40
55 55 55 55 55 56 56 56 55 55 54 42 42 40 39 38 38 39 54 54 54 53 52 52 52 53 52 53 52 51 49 48 47 45 41 39 40 41 41 41 41 41 42 42 42 41 40 41 40 40 41 40 39 38 38 37 38 37 37 36 36 36 36 37 37 37 37 36 37 35 30 30 33 32 34 33 35 34 35 36 38 38 39 39 40
54 55 55 55 55 56 55 55 54 54 53 38 37 37 38 37 39 52 53 52 50 48 48 48 48 48 48 50 49 48 46 43 39 37 38 39 40 41 41 41 40 40 39 38 37 38 41 40 39 39 39 40 38 40 39 37 37 38 37 36 37 37 35 33 30 32 33 34 36 33 32 30 33 33 33 34 34 34 34 35 35 38 39 39 40
53 53 54 54 54 54 54 54 54 53 48 40 38 38 38 39 45 51 50 47 46 45 45 46 46 47 47 46 46 44 42 40 38 36 37 39 41 41 41 41 40 38 37 37 36 36 35 35 35 34 34 34 35 36 36 36 37 38 34 32 32 33 31 29 30 31 31 32 33 34 33 31 33 32 32 33 33 33 34 35 36 37 39 39 39
54 53 52 51 51 53 53 53 54 53 48 42 38 39 40 40 46 49 46 45 44 43 42 43 44 43 42 44 45 43 42 41 36 36 37 40 41 41 40 39 37 37 37 37 38 38 35 35 34 34 34 34 34 35 36 36 36 37 34 30 33 31 31 31 28 30 31 31 32 34 32 31 32 31 30 31 32 33 34 34 35 37 38 39 37
52 51 51 51 51 50 51 51 46 50 49 43 38 38 39 39 45 48 44 42 42 41 40 39 41 40 39 39 40 41 41 39 35 35 36 40 41 41 39 39 37 37 37 37 37 37 38 38 37 38 38 38 39 37 36 36 36 36 36 35 33 31 29 29 30 30 29 30 32 35 31 30 30 30 30 29 29 31 33 33 34 34 34 33 34